Weather History for PAHN - October, 2013

Change the Weather History Date:

Tuesday, October 1, 2013

  Actual Average Record
Temperature  
Mean Temperature 46 °F -  
Max Temperature 50 °F 49 °F 64 °F (2003)
Min Temperature 44 °F 40 °F 28 °F (1974)
Degree Days  
Heating Degree Days 19    
Moisture  
Dew Point 45 °F    
Average Humidity 91    
Maximum Humidity 96    
Minimum Humidity 80    
Precipitation  
Precipitation 0.19 in - - ()
Sea Level Pressure  
Sea Level Pressure 29.75 in    
Wind  
Wind Speed 7 mph (NE)    
Max Wind Speed 12 mph    
Max Gust Speed -    
Visibility 10 miles    
Events Rain    
Averages and records for this station are not official NWS values.
T = Trace of Precipitation, MM = Missing Value Source: NWS Daily Summary

Daily Weather History Graph

Daily Weather History Graph

Search for Another Location

Airport or City:

Trip Planner

Search our weather history database for the weather conditions in past years. The results will help you decide how hot, cold, wet, or windy it might be!

Date:

Astronomy

Oct. 01, 2013 Rise Set
Actual Time 7:08 AM AKDT 6:33 PM AKDT
Civil Twilight 6:27 AM AKDT 7:14 PM AKDT
Nautical Twilight 5:39 AM AKDT 8:01 PM AKDT
Astronomical Twilight 4:49 AM AKDT 8:51 PM AKDT
Moon 3:11 AM AKDT (10/1) 5:12 PM AKDT (10/1)
Length of Visible Light 12h 46m
Length of Day
11h 25m
Waning Crescent, 11% of the Moon is Illuminated
Oct 1
Waning Crescent
Oct 4
New
Oct 11
First Quarter
Oct 18
Full
Oct 26
Last Quarter

Hourly Weather History & Observations

Time (AKDT) Temp. Windchill Dew Point Humidity Pressure Visibility Wind Dir Wind Speed Gust Speed Precip Events Conditions
12:54 AM 48.0 °F - 44.1 °F 86% 29.53 in 10.0 mi WNW 10.4 mph - N/A   Mostly Cloudy
1:54 AM 46.9 °F - 44.1 °F 90% 29.55 in 10.0 mi WNW 9.2 mph - N/A   Overcast
2:54 AM 46.9 °F - 44.1 °F 90% 29.57 in 10.0 mi WNW 9.2 mph - 0.01 in Rain Light Rain
3:54 AM 46.9 °F - 45.0 °F 93% 29.58 in 10.0 mi WNW 9.2 mph - 0.00 in Rain Light Rain
4:54 AM 48.0 °F - 43.0 °F 83% 29.59 in 10.0 mi NW 8.1 mph - 0.01 in   Overcast
5:54 AM 48.9 °F - 43.0 °F 80% 29.60 in 10.0 mi NW 8.1 mph - 0.00 in Rain Light Rain
6:54 AM 48.0 °F - 43.0 °F 83% 29.62 in 10.0 mi NW 9.2 mph - 0.02 in Rain Light Rain
7:54 AM 48.0 °F - 43.0 °F 83% 29.63 in 10.0 mi NNW 9.2 mph - 0.01 in   Overcast
8:54 AM 48.9 °F - 44.1 °F 83% 29.65 in 10.0 mi NW 10.4 mph - N/A   Overcast
9:54 AM 48.9 °F - 44.1 °F 83% 29.68 in 10.0 mi NW 11.5 mph - 0.00 in Rain Light Rain
10:54 AM 48.9 °F - 44.1 °F 83% 29.70 in 10.0 mi WNW 8.1 mph - 0.00 in Rain Light Rain
11:54 AM 48.0 °F - 45.0 °F 89% 29.73 in 7.0 mi Calm Calm - 0.02 in Rain Light Rain
12:54 PM 48.0 °F - 46.0 °F 93% 29.76 in 10.0 mi Calm Calm - 0.03 in Rain Light Rain
1:38 PM 48.2 °F - 46.4 °F 93% 29.77 in 7.0 mi SE 4.6 mph - 0.02 in Rain Light Rain
1:54 PM 48.0 °F - 46.0 °F 93% 29.78 in 10.0 mi ESE 3.5 mph - 0.02 in Rain Light Rain
2:21 PM 48.2 °F - 46.4 °F 93% 29.79 in 10.0 mi ESE 3.5 mph - 0.00 in Rain Light Rain
2:36 PM 48.2 °F - 46.4 °F 93% 29.79 in 8.0 mi ESE 4.6 mph - 0.01 in Rain Light Rain
2:54 PM 48.9 °F - 46.9 °F 93% 29.80 in 10.0 mi ESE 4.6 mph - 0.01 in Rain Light Rain
3:33 PM 48.2 °F - 46.4 °F 93% 29.80 in 10.0 mi East 4.6 mph - 0.01 in Rain Light Rain
3:43 PM 48.2 °F - 46.4 °F 93% 29.80 in 10.0 mi East 4.6 mph - 0.01 in Rain Light Rain
3:54 PM 48.9 °F - 46.9 °F 93% 29.82 in 10.0 mi East 4.6 mph - 0.01 in   Overcast
4:26 PM 48.2 °F - 46.4 °F 93% 29.82 in 10.0 mi ESE 3.5 mph - N/A   Overcast
4:54 PM 48.9 °F - 46.9 °F 93% 29.83 in 10.0 mi ESE 4.6 mph - 0.00 in Rain Light Rain
5:21 PM 48.2 °F - 46.4 °F 93% 29.83 in 9.0 mi East 4.6 mph - 0.02 in Rain Light Rain
5:54 PM 48.0 °F - 46.0 °F 93% 29.85 in 7.0 mi ESE 4.6 mph - 0.03 in Rain Light Rain
6:54 PM 46.0 °F 44.8 °F 45.0 °F 96% 29.86 in 10.0 mi East 3.5 mph - 0.01 in   Overcast
7:54 PM 46.0 °F 44.8 °F 45.0 °F 96% 29.88 in 10.0 mi East 3.5 mph - N/A   Overcast
8:54 PM 46.0 °F - 45.0 °F 96% 29.90 in 10.0 mi Calm Calm - 0.01 in   Overcast
9:54 PM 44.1 °F - 43.0 °F 96% 29.92 in 10.0 mi Calm Calm - N/A   Mostly Cloudy
10:54 PM 45.0 °F - 43.0 °F 93% 29.95 in 10.0 mi Calm Calm - N/A   Overcast
11:54 PM 44.1 °F - 43.0 °F 96% 29.96 in 10.0 mi Calm Calm - N/A   Mostly Cloudy